GW4407 Weather Reports


time (UTC)temp
F
wind
direction
speed
knots
gust
knots
rain 1hr
in
rain 24hr
in
rain mn
in
humidity
%
barometer
mb
20260507002703 47 357 2.6 6.1 0.00 0.16 0.00 81 1022.5
20260507001803 48 358 3.5 6.1 0.00 0.16 0.00 81 1022.7
20260507000903 48 2 3.5 7.0 0.00 0.17 0.00 80 1022.3
20260507000003 48 9 2.6 5.2 0.00 0.17 0.00 80 1022.3
20260506235403 49 350 3.5 6.1 0.00 0.17 0.00 80 1022.5
20260506234718 49 342 3.5 6.1 0.00 0.17 0.00 80 1022.4
20260506233603 49 11 3.5 6.1 0.00 0.17 0.00 80 1022.3
20260506232703 49 17 3.5 7.0 0.00 0.17 0.00 79 1022.4
20260506231803 49 32 3.5 7.0 0.00 0.17 0.00 79 1022.2
20260506230903 49 355 3.5 7.8 0.00 0.17 0.00 79 1022.1
20260506230003 50 338 1.7 5.2 0.00 0.17 0.00 80 1022.3
20260506225403 50 336 1.7 2.6 0.00 0.17 0.00 80 1022.2
20260506224503 50 340 1.7 3.5 0.00 0.17 0.00 79 1022.2
20260506223603 50 354 0.9 3.5 0.00 0.17 0.00 78 1022.1
20260506222917 50 359 0.9 1.7 0.00 0.17 0.00 79 1021.9
20260506221803 50 21 0.9 2.6 0.00 0.17 0.00 79 1021.9
20260506221119 50 26 0.9 2.6 0.00 0.17 0.00 79 1022.0
20260506220004 50 31 1.7 2.6 0.00 0.17 0.00 78 1022.0
20260506215403 50 38 1.7 5.2 0.00 0.17 0.17 78 1022.0
20260506214503 50 6 3.5 6.1 0.00 0.17 0.17 77 1022.0
20260506213603 50 341 2.6 3.5 0.00 0.17 0.17 77 1021.8
20260506212703 50 338 1.7 3.5 0.00 0.17 0.17 77 1021.8
20260506211803 50 350 1.7 3.5 0.00 0.17 0.17 77 1021.6
20260506210903 51 350 1.7 2.6 0.00 0.17 0.17 77 1021.8
20260506210003 50 331 1.7 2.6 0.00 0.17 0.17 76 1021.6
20260506205403 50 343 0.9 1.7 0.00 0.17 0.17 76 1021.6
20260506204503 50 327 1.7 2.6 0.00 0.17 0.17 76 1021.7
20260506203603 50 319 1.7 2.6 0.00 0.17 0.17 76 1021.6
20260506202703 50 331 1.7 2.6 0.00 0.17 0.17 76 1021.6
20260506201803 51 352 0.9 2.6 0.00 0.17 0.17 76 1021.5
20260506200903 50 1 0.9 2.6 0.00 0.17 0.17 76 1021.5
20260506200004 50 4 1.7 2.6 0.00 0.17 0.17 76 1021.4
20260506195618 50 1 1.7 2.6 0.00 0.17 0.17 76 1021.4
20260506194503 50 10 0.9 2.6 0.00 0.17 0.17 76 1021.1
20260506193603 50 19 0.9 2.6 0.00 0.17 0.17 77 1021.1
20260506192703 50 20 0.9 1.7 0.00 0.17 0.17 76 1021.0
20260506192019 50 15 0.9 1.7 0.00 0.17 0.17 76 1021.1
20260506190903 50 34 1.7 3.5 0.00 0.17 0.17 75 1020.7
20260506190004 51 30 1.7 3.5 0.00 0.17 0.17 75 1020.8
20260506185403 51 26 2.6 6.1 0.00 0.17 0.17 74 1020.7
20260506184503 51 21 2.6 7.0 0.00 0.17 0.17 75 1020.6
20260506183603 51 20 2.6 7.0 0.00 0.17 0.17 75 1020.4
20260506182703 51 41 1.7 5.2 0.00 0.17 0.17 76 1020.5
20260506181803 51 47 1.7 6.1 0.00 0.17 0.17 76 1020.3
20260506180903 51 51 1.7 6.1 0.00 0.17 0.17 76 1020.3
20260506180004 51 51 1.7 3.5 0.00 0.17 0.17 76 1020.2
20260506175403 51 43 1.7 5.2 0.00 0.17 0.17 76 1020.1
20260506174503 51 31 2.6 5.2 0.00 0.17 0.17 75 1020.2
20260506173603 51 32 2.6 7.8 0.00 0.17 0.17 75 1019.9
20260506172703 51 33 3.5 7.8 0.00 0.17 0.17 74 1019.7
20260506171803 51 53 3.5 7.8 0.00 0.17 0.17 74 1019.4
20260506170903 51 35 4.3 13.0 0.00 0.17 0.17 73 1019.7
20260506170003 51 46 3.5 13.0 0.00 0.17 0.17 74 1019.3
20260506165403 51 46 2.6 7.0 0.00 0.17 0.17 76 1019.5
20260506164503 51 32 3.5 7.8 0.00 0.17 0.17 75 1019.5
20260506163819 51 32 3.5 7.8 0.00 0.17 0.17 75 1019.5
20260506162703 51 25 3.5 7.0 0.00 0.17 0.17 76 1019.5
20260506162018 51 29 4.3 8.7 0.00 0.17 0.17 76 1019.6
20260506160903 50 62 3.5 8.7 0.00 0.17 0.17 76 1019.5
20260506160216 50 61 4.3 8.7 0.00 0.17 0.17 77 1019.5
20260506155403 50 59 4.3 8.7 0.00 0.17 0.17 77 1019.6
20260506154503 50 33 4.3 9.6 0.00 0.17 0.17 78 1019.7
20260506153603 50 39 3.5 9.6 0.00 0.17 0.17 78 1019.4
20260506152703 50 39 2.6 7.0 0.00 0.17 0.17 79 1019.4
20260506151803 50 26 2.6 6.1 0.00 0.17 0.17 79 1019.4
20260506150903 50 27 2.6 7.8 0.00 0.17 0.17 80 1019.3
20260506150003 50 26 3.5 7.0 0.00 0.17 0.17 80 1019.3
20260506145616 50 24 3.5 7.8 0.00 0.17 0.17 80 1019.4
20260506144503 50 34 3.5 7.8 0.00 0.17 0.17 81 1019.4
20260506143603 50 39 3.5 7.0 0.00 0.17 0.17 81 1019.2
20260506142703 50 15 3.5 7.0 0.00 0.17 0.17 80 1019.3
20260506142017 50 15 2.6 7.0 0.00 0.17 0.17 80 1019.4
20260506140903 50 52 5.2 11.3 0.00 0.17 0.17 80 1019.2
20260506140003 50 36 3.5 7.0 0.00 0.17 0.17 80 1019.2
20260506135619 50 16 4.3 12.2 0.00 0.17 0.17 79 1019.2
20260506134503 50 56 4.3 8.7 0.00 0.17 0.17 79 1019.1
20260506133818 50 55 5.2 12.2 0.00 0.17 0.17 79 1019.2
20260506132703 50 36 4.3 9.6 0.00 0.17 0.17 79 1019.2
20260506131803 50 42 4.3 7.0 0.00 0.17 0.17 80 1019.0
20260506130903 50 20 5.2 11.3 0.00 0.17 0.17 79 1018.9
20260506130004 50 39 4.3 11.3 0.00 0.17 0.17 77 1018.8
20260506125403 51 18 4.3 8.7 0.00 0.17 0.17 76 1018.8
20260506124718 51 11 4.3 8.7 0.00 0.17 0.17 74 1018.7
20260506123603 51 30 4.3 7.8 0.00 0.17 0.17 73 1018.8
20260506122703 51 25 4.3 9.6 0.00 0.17 0.17 73 1018.6
20260506121803 51 13 5.2 9.6 0.00 0.17 0.17 72 1018.6
20260506121116 51 7 6.1 9.6 0.00 0.17 0.17 73 1018.7
20260506120003 51 15 4.3 7.8 0.00 0.17 0.17 74 1018.7
20260506115403 50 17 4.3 9.6 0.00 0.17 0.17 74 1018.5
20260506114503 50 30 2.6 7.0 0.00 0.17 0.17 79 1018.7
20260506113603 49 39 2.6 7.0 0.00 0.17 0.17 82 1018.7
20260506112703 49 37 3.5 7.0 0.00 0.17 0.17 83 1018.7
20260506111803 49 47 4.3 7.8 0.00 0.17 0.17 82 1018.7
20260506110903 49 19 5.2 11.3 0.00 0.17 0.17 79 1018.6
20260506110003 50 46 4.3 7.8 0.00 0.17 0.17 78 1018.5
20260506105403 50 29 3.5 7.8 0.00 0.17 0.17 77 1018.4
20260506104503 50 20 3.5 8.7 0.00 0.17 0.17 77 1018.4
20260506103603 50 74 3.5 7.0 0.00 0.17 0.17 78 1018.4
20260506102703 50 47 2.6 5.2 0.00 0.17 0.17 77 1018.4
20260506101803 50 9 2.6 5.2 0.00 0.17 0.17 78 1018.4
20260506100903 49 12 3.5 7.0 0.00 0.17 0.17 77 1018.3
20260506100004 49 30 4.3 8.7 0.00 0.17 0.17 78 1017.9
20260506095403 49 38 4.3 7.8 0.00 0.17 0.17 78 1018.2
20260506094503 49 21 4.3 11.3 0.01 0.17 0.17 78 1018.3
20260506093603 49 25 4.3 8.7 0.01 0.17 0.17 78 1018.2
20260506092703 49 26 5.2 13.0 0.01 0.17 0.17 79 1018.1
20260506091803 48 19 5.2 11.3 0.01 0.17 0.17 80 1017.9
20260506091118 48 19 5.2 11.3 0.01 0.17 0.17 82 1018.0
20260506090003 48 23 3.5 8.7 0.01 0.17 0.17 87 1018.0
20260506085403 48 29 4.3 8.7 0.01 0.17 0.17 88 1017.8
20260506084503 48 22 2.6 6.1 0.00 0.16 0.16 89 1017.9
20260506083603 48 24 3.5 7.8 0.00 0.16 0.16 89 1017.7
20260506082703 48 43 5.2 8.7 0.00 0.16 0.16 88 1017.8
20260506082019 48 46 5.2 9.6 0.00 0.16 0.16 88 1017.8
20260506080903 49 37 4.3 13.0 0.00 0.16 0.16 86 1017.5
20260506072703 49 11 3.5 6.1 0.00 0.16 0.16 89 1017.4
20260506071803 49 12 3.5 7.0 0.00 0.16 0.16 90 1017.5
20260506070903 48 14 3.5 6.1 0.00 0.16 0.16 91 1017.2
20260506061803 48 342 3.5 6.1 0.01 0.16 0.16 92 1017.2
20260506060903 48 347 3.5 6.1 0.01 0.16 0.16 92 1016.9
20260506060217 48 338 3.5 6.1 0.00 0.15 0.15 92 1016.9
20260506051117 47 7 2.6 5.2 0.01 0.15 0.15 93 1017.0
20260506044503 47 6 3.5 6.1 0.03 0.15 0.15 93 1017.0
20260506043819 47 350 2.6 6.1 0.04 0.15 0.15 93 1017.1
20260506042703 47 11 3.5 6.1 0.06 0.15 0.15 93 1017.1
20260506042017 47 11 3.5 6.1 0.06 0.15 0.15 93 1017.1
20260506040903 47 4 4.3 7.8 0.06 0.14 0.14 93 1017.1
20260506040003 47 19 2.6 6.1 0.06 0.14 0.14 93 1017.0
20260506035403 47 10 2.6 6.1 0.06 0.13 0.13 93 1017.1
20260506034503 47 354 2.6 7.0 0.05 0.12 0.12 93 1017.2
20260506033603 47 3 2.6 7.0 0.03 0.10 0.10 93 1017.2
20260506032917 47 20 3.5 7.0 0.04 0.10 0.10 93 1017.2
20260506031803 47 4 4.3 7.8 0.04 0.09 0.09 92 1017.2
20260506030903 47 350 3.5 7.8 0.03 0.08 0.08 92 1017.4
20260506030216 47 358 3.5 7.0 0.04 0.08 0.08 92 1017.4
20260506025403 47 13 3.5 6.1 0.03 0.07 0.07 92 1017.7
20260506024503 47 13 3.5 7.0 0.04 0.07 0.07 92 1017.4
20260506023603 47 23 3.5 7.0 0.04 0.07 0.07 92 1017.5
20260506022703 47 17 3.5 7.8 0.03 0.06 0.06 91 1017.6
20260506021803 47 2 3.5 7.8 0.03 0.06 0.05 91 1017.5
20260506020903 47 16 3.5 7.0 0.03 0.06 0.05 91 1017.5
20260506020004 47 349 3.5 7.0 0.02 0.05 0.04 91 1017.6
20260506015403 47 354 4.3 7.0 0.02 0.05 0.04 90 1017.7
20260506014503 47 20 3.5 7.8 0.02 0.05 0.03 90 1017.8
20260506013603 47 1 3.5 7.0 0.02 0.06 0.03 90 1017.8
20260506012703 47 354 4.3 7.8 0.02 0.06 0.03 90 1017.9
20260506012016 47 354 4.3 7.0 0.01 0.05 0.02 89 1018.0
20260506010903 47 24 4.3 7.8 0.02 0.06 0.02 89 1017.9
20260506010003 47 17 5.2 7.8 0.02 0.06 0.02 89 1017.9
20260506005403 48 9 4.3 7.0 0.02 0.06 0.02 88 1017.9
20260506004503 48 17 3.5 6.1 0.01 0.05 0.01 88 1018.0
20260506003603 48 2 4.3 8.7 0.01 0.05 0.01 88 1018.1